Change the Weather History Date:

Friday, August 10, 2012

  Actual Average (KNEW) Record (KNEW)
Temperature  
Mean Temperature 81 °F 83 °F  
Max Temperature 89 °F 92 °F 97 °F (2000)
Min Temperature 73 °F 75 °F 62 °F (1976)
Degree Days  
Heating Degree Days 0 0  
Month to date heating degree days 0  
Since 1 June heating degree days 0  
Since 1 July heating degree days 0  
Cooling Degree Days 16 18  
Month to date cooling degree days 180  
Year to date cooling degree days 1860  
Since 1 June cooling degree days 1241  
Growing Degree Days 31 (Base 50)    
Moisture  
Dew Point 77 °F    
Average Humidity 90    
Maximum Humidity 100    
Minimum Humidity 70    
Precipitation  
Precipitation 0.32 in 0.18 in 1.97 in (1981)
Month to date precipitation 1.95  
Year to date precipitation 40.18  
Snow  
Snow 0.00 in - - ()
Month to date snowfall  
Since 1 June snowfall  
Since 1 July snowfall  
Snow Depth -    
Sea Level Pressure  
Sea Level Pressure 29.89 in    
Wind  
Wind Speed 3 mph (SW)    
Max Wind Speed 9 mph    
Max Gust Speed -    
Visibility 9 miles    
Events Rain , Thunderstorm    
T = Trace of Precipitation, MM = Missing Value Source: NWS Daily Summary

Daily Weather History Graph

Daily Weather History Graph

Search for Another Location

Airport or City:

Trip Planner

Search our weather history database for the weather conditions in past years. The results will help you decide how hot, cold, wet, or windy it might be!

Date:

Astronomy

Aug. 10, 2012 Rise Set
Actual Time 6:23 AM CDT 7:45 PM CDT
Civil Twilight 5:57 AM CDT 8:10 PM CDT
Nautical Twilight 5:27 AM CDT 8:40 PM CDT
Astronomical Twilight 4:55 AM CDT 9:12 PM CDT
Moon 12:16 AM CDT (8/10) 2:19 PM CDT (8/10)
Length of Visible Light 14h 12m
Length of Day
13h 21m
Last Quarter, 41% of the Moon is Illuminated
Aug 10
Last Quarter
Aug 17
New
Aug 24
First Quarter
Aug 31
Full
Sep 8
Last Quarter

Hourly Weather History & Observations

Time (CDT) Temp. Heat Index Dew Point Humidity Pressure Visibility Wind Dir Wind Speed Gust Speed Precip Events Conditions
12:53 AM 73.0 °F - 73.0 °F 100% 29.90 in 10.0 mi Calm Calm - N/A   Clear
1:53 AM 73.0 °F - 73.0 °F 100% 29.88 in 9.0 mi South 4.6 mph - N/A   Partly Cloudy
2:53 AM 75.0 °F - 75.0 °F 100% 29.89 in 10.0 mi Calm Calm - N/A   Mostly Cloudy
3:53 AM 77.0 °F - 77.0 °F 100% 29.89 in 10.0 mi SSW 4.6 mph - N/A   Scattered Clouds
4:53 AM 79.0 °F - 78.1 °F 97% 29.88 in 10.0 mi SSW 3.5 mph - N/A   Mostly Cloudy
5:15 AM 80.6 °F 88.1 °F 78.8 °F 94% 29.88 in 10.0 mi SSW 3.5 mph - 0.00 in Rain Light Rain
5:23 AM 80.6 °F 88.1 °F 78.8 °F 94% 29.88 in 10.0 mi SSW 4.6 mph - 0.00 in   Scattered Clouds
5:53 AM 80.1 °F 86.4 °F 78.1 °F 94% 29.88 in 10.0 mi SSW 3.5 mph - 0.00 in   Clear
6:53 AM 80.1 °F 86.7 °F 79.0 °F 96% 29.90 in 9.0 mi Calm Calm - N/A   Scattered Clouds
7:14 AM 80.6 °F 88.1 °F 78.8 °F 94% 29.90 in 9.0 mi Calm Calm - N/A   Mostly Cloudy
7:24 AM 80.6 °F 88.1 °F 78.8 °F 94% 29.90 in 10.0 mi SW 3.5 mph - N/A   Partly Cloudy
7:53 AM 82.9 °F 94.8 °F 80.1 °F 91% 29.91 in 10.0 mi SW 3.5 mph - N/A   Partly Cloudy
8:53 AM 84.0 °F 97.3 °F 80.1 °F 88% 29.93 in 10.0 mi SW 3.5 mph - N/A   Mostly Cloudy
9:05 AM 84.2 °F 98.3 °F 80.6 °F 89% 29.93 in 10.0 mi Variable 4.6 mph - N/A   Mostly Cloudy
9:15 AM 84.2 °F 96.1 °F 78.8 °F 84% 29.93 in 10.0 mi WSW 5.8 mph - N/A   Mostly Cloudy
9:53 AM 84.0 °F 96.0 °F 79.0 °F 85% 29.93 in 10.0 mi Calm Calm - 0.01 in   Mostly Cloudy
10:07 AM 86.0 °F 99.3 °F 78.8 °F 79% 29.92 in 10.0 mi WNW 8.1 mph - N/A   Mostly Cloudy
10:24 AM 86.0 °F 99.3 °F 78.8 °F 79% 29.91 in 10.0 mi Variable 6.9 mph - N/A   Scattered Clouds
10:53 AM 87.1 °F 99.8 °F 78.1 °F 74% 29.92 in 10.0 mi WSW 6.9 mph - N/A   Partly Cloudy
11:53 AM 88.0 °F 101.3 °F 78.1 °F 72% 29.91 in 10.0 mi WSW 8.1 mph - N/A   Partly Cloudy
12:53 PM 88.0 °F 103.1 °F 79.0 °F 75% 29.90 in 10.0 mi SW 8.1 mph - N/A   Mostly Cloudy
1:03 PM 89.6 °F 104.7 °F 78.8 °F 70% 29.90 in 10.0 mi SW 8.1 mph - N/A   Mostly Cloudy
1:14 PM 89.6 °F 104.7 °F 78.8 °F 70% 29.89 in 10.0 mi Variable 6.9 mph - N/A Thunderstorm Mostly Cloudy
1:42 PM 82.4 °F 92.4 °F 78.8 °F 89% 29.89 in 1.8 mi SW 9.2 mph - 0.09 in Rain , Thunderstorm Thunderstorms and Rain
1:53 PM 82.0 °F 91.6 °F 79.0 °F 90% 29.91 in 1.5 mi SSW 4.6 mph - 0.16 in Rain , Thunderstorm Heavy Thunderstorms and Rain
1:59 PM 82.4 °F 92.4 °F 78.8 °F 89% 29.90 in 3.0 mi SSW 5.8 mph - 0.01 in Rain , Thunderstorm Light Thunderstorms and Rain
2:32 PM 75.2 °F - 73.4 °F 94% 29.92 in 1.0 mi Calm Calm - 0.12 in Rain , Thunderstorm Heavy Thunderstorms and Rain
2:42 PM 75.2 °F - 73.4 °F 94% 29.90 in 3.0 mi South 3.5 mph - 0.14 in Rain , Thunderstorm Thunderstorms and Rain
2:53 PM 75.9 °F - 73.9 °F 94% 29.90 in 10.0 mi Calm Calm - 0.15 in Rain , Thunderstorm Light Rain
3:32 PM 75.2 °F - 73.4 °F 94% 29.88 in 10.0 mi Calm Calm - 0.00 in   Partly Cloudy
3:53 PM 75.9 °F - 75.0 °F 97% 29.89 in 10.0 mi SSW 3.5 mph - 0.00 in Rain Light Rain
4:53 PM 79.0 °F - 75.9 °F 90% 29.86 in 10.0 mi SW 6.9 mph - 0.00 in Rain Light Rain
5:53 PM 81.0 °F 87.3 °F 75.9 °F 85% 29.84 in 10.0 mi Variable 3.5 mph - 0.00 in   Clear
6:53 PM 80.1 °F 85.4 °F 75.9 °F 87% 29.84 in 10.0 mi Calm Calm - N/A   Clear
7:53 PM 78.1 °F - 77.0 °F 96% 29.87 in 10.0 mi Calm Calm - N/A   Clear
8:53 PM 78.1 °F - 75.9 °F 93% 29.87 in 10.0 mi Calm Calm - N/A   Clear
9:53 PM 77.0 °F - 75.9 °F 96% 29.89 in 10.0 mi Calm Calm - N/A   Clear
10:53 PM 77.0 °F - 75.9 °F 96% 29.91 in 10.0 mi Calm Calm - N/A   Mostly Cloudy
11:53 PM 79.0 °F - 78.1 °F 97% 29.86 in 10.0 mi South 5.8 mph - N/A   Clear